Date,TemperatureHighF,TemperatureAvgF,TemperatureLowF,DewpointHighF,DewpointAvgF,DewpointLowF,HumidityHigh,HumidityAvg,HumidityLow,PressureMaxIn,PressureMinIn,WindSpeedMaxMPH,WindSpeedAvgMPH,GustSpeedMaxMPH,PrecipitationSumIn
2014-1-1,22,14,6,-100,-100,-100,0,0,100,0.00,40.00,0,-999,0,0.00
2014-1-2,32,19,11,-100,-100,-100,0,0,100,0.00,40.00,0,-999,0,0.00
2014-1-3,31,28,20,-100,-100,-100,0,0,100,0.00,40.00,0,-999,0,0.00
2014-1-4,11,7,3,-100,-100,-100,0,0,100,0.00,40.00,0,-999,0,0.00
2014-1-5,3,0,-4,-100,-100,-100,0,0,100,0.00,40.00,0,-999,0,0.00
2014-1-6,33,27,11,-100,-100,-100,0,0,100,0.00,40.00,0,-999,0,0.02
2014-1-7,32,28,20,-100,-100,-100,0,0,100,0.00,40.00,0,-999,0,0.02
2014-1-8,31,17,10,-100,-100,-100,0,0,100,0.00,40.00,0,-999,0,0.00
2014-1-9,19,19,19,-100,-100,-100,0,0,100,0.00,40.00,0,-999,0,0.00
2014-1-11,32,28,23,-100,-100,-100,0,0,100,0.00,40.00,0,-999,0,0.01
2014-1-12,19,15,13,-100,-100,-100,0,0,100,0.00,40.00,0,-999,0,0.00
2014-1-13,27,24,19,-100,-100,-100,0,0,100,0.00,40.00,0,-999,0,0.01
2014-1-14,30,25,19,-100,-100,-100,0,0,100,0.00,40.00,0,-999,0,0.00
2014-1-15,40,34,29,-100,-100,-100,0,0,100,0.00,40.00,0,-999,0,0.01
2014-1-16,30,26,23,-100,-100,-100,0,0,100,0.00,40.00,0,-999,0,0.00
2014-1-17,39,32,25,-100,-100,-100,0,0,100,0.00,40.00,0,-999,0,0.00
2014-1-18,40,24,14,-100,-100,-100,0,0,100,0.00,40.00,0,-999,0,0.00
2014-1-19,40,31,21,-100,-100,-100,0,0,100,0.00,40.00,0,-999,0,0.00
2014-1-20,37,24,15,-100,-100,-100,0,0,100,0.00,40.00,0,-999,0,0.00
2014-1-21,40,30,20,-100,-100,-100,0,0,100,0.00,40.00,0,-999,0,0.00
2014-1-22,26,20,15,-100,-100,-100,0,0,100,0.00,40.00,0,-999,0,0.00
2014-1-24,43,32,21,-100,-100,-100,0,0,100,0.00,40.00,0,-999,0,0.01
2014-1-25,40,35,28,-100,-100,-100,0,0,100,0.00,40.00,0,-999,0,0.00
2014-1-26,32,19,4,-100,-100,-100,0,0,100,0.00,40.00,0,-999,0,0.00
2014-1-27,13,9,5,-100,-100,-100,0,0,100,0.00,40.00,0,-999,0,0.00
2014-1-28,29,20,7,-100,-100,-100,0,0,100,0.00,40.00,0,-999,0,0.00
2014-1-29,31,29,25,-100,-100,-100,0,0,100,0.00,40.00,0,-999,0,0.00
2014-1-30,21,15,7,-100,-100,-100,0,0,100,0.00,40.00,0,-999,0,0.00
2014-1-31,22,10,4,-100,-100,-100,0,0,100,0.00,40.00,0,-999,0,0.00
2014-2-1,11,3,-10,-100,-100,-100,0,0,100,0.00,40.00,0,-999,0,0.00
2014-2-2,4,-1,-4,-100,-100,-100,0,0,100,0.00,40.00,0,-999,0,0.01
2014-2-3,19,7,-2,-100,-100,-100,0,0,100,0.00,40.00,0,-999,0,0.00
2014-2-4,1,-9,-19,-100,-100,-100,0,0,100,0.00,40.00,0,-999,0,0.00
2014-2-5,-3,-16,-20,-100,-100,-100,0,0,100,0.00,40.00,0,-999,0,0.00
2014-2-6,12,8,-1,-100,-100,-100,0,0,100,0.00,40.00,0,-999,0,0.00
2014-2-7,18,14,12,-100,-100,-100,0,0,100,0.00,40.00,0,-999,0,0.01
2014-2-12,31,23,9,-100,-100,-100,0,0,100,0.00,40.00,0,-999,0,0.00
2014-2-13,29,27,22,-100,-100,-100,0,0,100,0.00,40.00,0,-999,0,0.00
2014-2-14,32,25,17,-100,-100,-100,0,0,100,0.00,40.00,0,-999,0,0.00
2014-2-15,34,31,29,-100,-100,-100,0,0,100,0.00,40.00,0,-999,0,0.01
2014-2-16,33,23,14,-100,-100,-100,0,0,100,0.00,40.00,0,-999,0,0.01
2014-2-17,28,22,17,-100,-100,-100,0,0,100,0.00,40.00,0,-999,0,0.01
2014-2-18,28,24,20,-100,-100,-100,0,0,100,0.00,40.00,0,-999,0,0.00
2014-2-19,23,20,15,-100,-100,-100,0,0,100,0.00,40.00,0,-999,0,0.00
2014-2-20,18,10,2,-100,-100,-100,0,0,100,0.00,40.00,0,-999,0,0.01
2014-2-21,17,15,14,-100,-100,-100,0,0,100,0.00,40.00,0,-999,0,0.01
2014-2-22,21,15,12,-100,-100,-100,0,0,100,0.00,40.00,0,-999,0,0.01
2014-2-23,26,21,16,-100,-100,-100,0,0,100,0.00,40.00,0,-999,0,0.00
2014-2-24,28,26,24,-100,-100,-100,0,0,100,0.00,40.00,0,-999,0,0.00
2014-2-25,29,21,1,-100,-100,-100,0,0,100,0.00,40.00,0,-999,0,0.00
2014-2-26,40,23,7,-100,-100,-100,0,0,100,0.00,40.00,0,-999,0,0.02
2014-2-27,38,32,28,-100,-100,-100,0,0,100,0.00,40.00,0,-999,0,0.01
2014-2-28,29,26,24,-100,-100,-100,0,0,100,0.00,40.00,0,-999,0,0.00
2014-3-1,26,26,25,-100,-100,-100,0,0,100,0.00,40.00,0,-999,0,0.00
2014-3-2,30,26,24,-100,-100,-100,0,0,100,0.00,40.00,0,-999,0,0.00
2014-3-3,34,29,26,-100,-100,-100,0,0,100,0.00,40.00,0,-999,0,0.00
2014-3-4,33,28,21,-100,-100,-100,0,0,100,0.00,40.00,0,-999,0,0.00
2014-3-5,36,28,21,-100,-100,-100,0,0,100,0.00,40.00,0,-999,0,0.00
2014-3-6,35,32,29,-100,-100,-100,0,0,100,0.00,40.00,0,-999,0,0.00
2014-3-7,31,24,14,-100,-100,-100,0,0,100,0.00,40.00,0,-999,0,0.00
2014-3-8,45,30,8,-100,-100,-100,0,0,100,0.00,40.00,0,-999,0,0.02
2014-3-11,23,16,4,-100,-100,-100,0,0,100,0.00,40.00,0,-999,0,0.02
2014-3-12,42,24,5,-100,-100,-100,0,0,100,0.00,40.00,0,-999,0,0.02
2014-3-13,41,26,11,-100,-100,-100,0,0,100,0.00,40.00,0,-999,0,0.01
2014-3-14,36,24,11,-100,-100,-100,0,0,100,0.00,40.00,0,-999,0,0.01
2014-3-15,31,23,14,-100,-100,-100,0,0,100,0.00,40.00,0,-999,0,0.00
2014-3-16,41,34,18,-100,-100,-100,0,0,100,0.00,40.00,0,-999,0,0.01
2014-3-17,33,26,19,-100,-100,-100,0,0,100,0.00,40.00,0,-999,0,0.00
2014-3-18,24,16,6,-100,-100,-100,0,0,100,0.00,40.00,0,-999,0,0.03
2014-3-19,32,15,-4,-100,-100,-100,0,0,100,0.00,40.00,0,-999,0,0.01
2014-3-20,34,25,22,-100,-100,-100,0,0,100,0.00,40.00,0,-999,0,0.01
2014-3-21,31,18,1,-100,-100,-100,0,0,100,0.00,40.00,0,-999,0,0.00
2014-3-22,21,13,9,-100,-100,-100,0,0,100,0.00,40.00,0,-999,0,0.01
2014-3-23,30,23,16,-100,-100,-100,0,0,100,0.00,40.00,0,-999,0,0.00
2014-3-25,43,35,25,-100,-100,-100,0,0,100,0.00,40.00,0,-999,0,0.00
2014-3-26,40,33,21,-100,-100,-100,0,0,100,0.00,40.00,0,-999,0,0.00
2014-3-27,32,23,17,-100,-100,-100,0,0,100,0.00,40.00,0,-999,0,0.00
2014-3-28,30,24,17,-100,-100,-100,0,0,100,0.00,40.00,0,-999,0,0.01
2014-3-29,37,31,24,-100,-100,-100,0,0,100,0.00,40.00,0,-999,0,0.01
2014-3-30,33,29,21,-100,-100,-100,0,0,100,0.00,40.00,0,-999,0,0.02
2014-3-31,33,22,6,-100,-100,-100,0,0,100,0.00,40.00,0,-999,0,0.02
2014-4-1,30,23,10,-100,-100,-100,0,0,100,0.00,40.00,0,-999,0,0.01
2014-4-2,32,21,4,-100,-100,-100,0,0,100,0.00,40.00,0,-999,0,0.02
2014-4-3,29,16,2,-100,-100,-100,0,0,100,0.00,40.00,0,-999,0,0.00
2014-4-4,34,24,5,-100,-100,-100,0,0,100,0.00,40.00,0,-999,0,0.01
2014-4-5,39,27,15,-100,-100,-100,0,0,100,0.00,40.00,0,-999,0,0.01
2014-4-6,38,30,20,-100,-100,-100,0,0,100,0.00,40.00,0,-999,0,0.00
2014-4-7,41,28,16,-100,-100,-100,0,0,100,0.00,40.00,0,-999,0,0.00
2014-4-8,52,41,22,-100,-100,-100,0,0,100,0.00,40.00,0,-999,0,0.01
2014-4-9,46,40,35,-100,-100,-100,0,0,100,0.00,40.00,0,-999,0,0.01
2014-4-10,46,37,30,-100,-100,-100,0,0,100,0.00,40.00,0,-999,0,0.00
2014-4-11,46,38,32,-100,-100,-100,0,0,100,0.00,40.00,0,-999,0,0.00
2014-4-12,46,37,25,-100,-100,-100,0,0,100,0.00,40.00,0,-999,0,0.01
2014-4-13,22,17,11,-100,-100,-100,0,0,100,0.00,40.00,0,-999,0,0.01
2014-4-14,37,19,-7,-100,-100,-100,0,0,100,0.00,40.00,0,-999,0,0.01
2014-4-15,41,31,24,-100,-100,-100,0,0,100,0.00,40.00,0,-999,0,0.02
2014-4-16,38,22,8,-100,-100,-100,0,0,100,0.00,40.00,0,-999,0,0.00
2014-4-17,45,34,16,-100,-100,-100,0,0,100,0.00,40.00,0,-999,0,0.01
2014-4-18,41,37,34,-100,-100,-100,0,0,100,0.00,40.00,0,-999,0,0.02
2014-4-19,48,39,33,-100,-100,-100,0,0,100,0.00,40.00,0,-999,0,0.00
2014-4-20,48,39,30,-100,-100,-100,0,0,100,0.00,40.00,0,-999,0,0.00
2014-4-21,51,38,23,-100,-100,-100,0,0,100,0.00,40.00,0,-999,0,0.00
2014-4-22,49,42,34,-100,-100,-100,0,0,100,0.00,40.00,0,-999,0,0.01
2014-4-23,33,27,20,-100,-100,-100,0,0,100,0.00,40.00,0,-999,0,0.01
2014-4-24,38,29,20,-100,-100,-100,0,0,100,0.00,40.00,0,-999,0,0.01
2014-4-25,45,38,30,-100,-100,-100,0,0,100,0.00,40.00,0,-999,0,0.01
2014-4-26,46,36,31,-100,-100,-100,0,0,100,0.00,40.00,0,-999,0,0.01
2014-4-27,42,29,22,-100,-100,-100,0,0,100,0.00,40.00,0,-999,0,0.01
2014-4-28,32,22,17,-100,-100,-100,0,0,100,0.00,40.00,0,-999,0,0.00
2014-4-29,33,23,12,-100,-100,-100,0,0,100,0.00,40.00,0,-999,0,0.01
2014-4-30,37,26,19,-100,-100,-100,0,0,100,0.00,40.00,0,-999,0,0.02
2014-5-1,49,36,22,-100,-100,-100,0,0,100,0.00,40.00,0,-999,0,0.00
2014-5-2,52,44,33,-100,-100,-100,0,0,100,0.00,40.00,0,-999,0,0.01
2014-5-3,57,48,40,-100,-100,-100,0,0,100,0.00,40.00,0,-999,0,0.01
2014-5-4,50,46,43,-100,-100,-100,0,0,100,0.00,40.00,0,-999,0,0.00
2014-5-5,53,46,38,-100,-100,-100,0,0,100,0.00,40.00,0,-999,0,0.00
2014-5-6,42,36,31,-100,-100,-100,0,0,100,0.00,40.00,0,-999,0,0.00
2014-5-13,35,28,20,-100,-100,-100,0,0,100,0.00,40.00,0,-999,0,0.00
2014-5-14,45,33,19,-100,-100,-100,0,0,100,0.00,40.00,0,-999,0,0.00
2014-5-15,53,40,26,-100,-100,-100,0,0,100,0.00,40.00,0,-999,0,0.00
2014-5-16,48,40,28,-100,-100,-100,0,0,100,0.00,40.00,0,-999,0,0.01
2014-5-17,55,45,36,-100,-100,-100,0,0,100,0.00,40.00,0,-999,0,0.01
2014-5-18,53,47,42,-100,-100,-100,0,0,100,0.00,40.00,0,-999,0,0.00
2014-5-19,44,38,31,-100,-100,-100,0,0,100,0.00,40.00,0,-999,0,0.00
2014-5-20,43,37,29,-100,-100,-100,0,0,100,0.00,40.00,0,-999,0,0.00
2014-5-21,55,47,34,-100,-100,-100,0,0,100,0.00,40.00,0,-999,0,0.02
2014-5-22,57,44,29,-100,-100,-100,0,0,100,0.00,40.00,0,-999,0,0.01
2014-5-23,57,44,34,-100,-100,-100,0,0,100,0.00,40.00,0,-999,0,0.01
2014-5-24,54,42,34,-100,-100,-100,0,0,100,0.00,40.00,0,-999,0,0.01
2014-5-25,54,43,34,-100,-100,-100,0,0,100,0.00,40.00,0,-999,0,0.01
2014-5-26,61,48,34,-100,-100,-100,0,0,100,0.00,40.00,0,-999,0,0.01
2014-5-27,61,47,36,-100,-100,-100,0,0,100,0.00,40.00,0,-999,0,0.00
2014-5-28,62,47,38,-100,-100,-100,0,0,100,0.00,40.00,0,-999,0,0.00
2014-5-29,59,49,37,-100,-100,-100,0,0,100,0.00,40.00,0,-999,0,0.02
2014-5-30,55,44,34,-100,-100,-100,0,0,100,0.00,40.00,0,-999,0,0.01
2014-5-31,60,48,35,-100,-100,-100,0,0,100,0.00,40.00,0,-999,0,0.02
2014-6-1,51,42,32,-100,-100,-100,0,0,100,0.00,40.00,0,-999,0,0.01
2014-6-2,57,48,30,-100,-100,-100,0,0,100,0.00,40.00,0,-999,0,0.02
2014-6-3,57,50,42,-100,-100,-100,0,0,100,0.00,40.00,0,-999,0,0.01
2014-6-4,54,44,33,-100,-100,-100,0,0,100,0.00,40.00,0,-999,0,0.00
2014-6-5,59,52,43,-100,-100,-100,0,0,100,0.00,40.00,0,-999,0,0.04
2014-6-6,58,47,31,-100,-100,-100,0,0,100,0.00,40.00,0,-999,0,0.00
2014-6-7,56,44,34,-100,-100,-100,0,0,100,0.00,40.00,0,-999,0,0.01
2014-6-8,42,36,31,-100,-100,-100,0,0,100,0.00,40.00,0,-999,0,0.00
2014-6-9,56,43,27,-100,-100,-100,0,0,100,0.00,40.00,0,-999,0,0.06
2014-6-10,62,52,43,-100,-100,-100,0,0,100,0.00,40.00,0,-999,0,0.01
2014-6-11,53,46,37,-100,-100,-100,0,0,100,0.00,40.00,0,-999,0,0.00
2014-6-12,60,47,30,-100,-100,-100,0,0,100,0.00,40.00,0,-999,0,0.01
2014-6-13,56,49,39,-100,-100,-100,0,0,100,0.00,40.00,0,-999,0,0.02
2014-6-14,45,39,35,-100,-100,-100,0,0,100,0.00,40.00,0,-999,0,0.01
2014-6-15,49,40,33,-100,-100,-100,0,0,100,0.00,40.00,0,-999,0,0.02
2014-6-16,50,43,35,-100,-100,-100,0,0,100,0.00,40.00,0,-999,0,0.01
2014-6-17,43,37,32,-100,-100,-100,0,0,100,0.00,40.00,0,-999,0,0.00
2014-6-18,39,33,29,-100,-100,-100,0,0,100,0.00,40.00,0,-999,0,0.06
2014-6-19,48,38,28,-100,-100,-100,0,0,100,0.00,40.00,0,-999,0,0.03
2014-6-20,60,50,35,-100,-100,-100,0,0,100,0.00,40.00,0,-999,0,0.02
2014-6-21,62,52,39,-100,-100,-100,0,0,100,0.00,40.00,0,-999,0,0.01
2014-6-22,57,45,34,-100,-100,-100,0,0,100,0.00,40.00,0,-999,0,0.00
2014-6-23,59,44,33,-100,-100,-100,0,0,100,0.00,40.00,0,-999,0,0.03
2014-6-24,63,48,35,-100,-100,-100,0,0,100,0.00,40.00,0,-999,0,0.01
2014-6-25,64,54,39,-100,-100,-100,0,0,100,0.00,40.00,0,-999,0,0.00
2014-6-26,63,55,42,-100,-100,-100,0,0,100,0.00,40.00,0,-999,0,0.00
2014-6-27,52,47,42,-100,-100,-100,0,0,100,0.00,40.00,0,-999,0,0.00
2014-6-28,50,43,37,-100,-100,-100,0,0,100,0.00,40.00,0,-999,0,0.02
2014-6-29,60,51,40,-100,-100,-100,0,0,100,0.00,40.00,0,-999,0,0.02
2014-6-30,59,48,35,-100,-100,-100,0,0,100,0.00,40.00,0,-999,0,0.01
2014-7-1,57,43,30,-100,-100,-100,0,0,100,0.00,40.00,0,-999,0,0.01
2014-7-2,64,51,33,-100,-100,-100,0,0,100,0.00,40.00,0,-999,0,0.00
2014-7-3,69,55,40,-100,-100,-100,0,0,100,0.00,40.00,0,-999,0,0.01
2014-7-4,69,58,42,-100,-100,-100,0,0,100,0.00,40.00,0,-999,0,0.02
2014-7-5,71,62,56,-100,-100,-100,0,0,100,0.00,40.00,0,-999,0,0.00
2014-7-6,71,64,49,-100,-100,-100,0,0,100,0.00,40.00,0,-999,0,0.00
2014-7-7,67,56,45,-100,-100,-100,0,0,100,0.00,40.00,0,-999,0,0.00
2014-7-8,69,54,39,-100,-100,-100,0,0,100,0.00,40.00,0,-999,0,0.00
2014-7-9,71,60,47,-100,-100,-100,0,0,100,0.00,40.00,0,-999,0,0.00
2014-7-10,64,59,52,-100,0,200,0,0,100,0.00,40.00,0,0,0,0.00
2014-7-11,58,51,44,-100,0,200,0,0,100,0.00,40.00,0,0,0,0.01
2014-7-12,60,51,44,-100,0,200,0,0,100,0.00,40.00,0,0,0,0.04
2014-7-13,60,51,41,-100,0,200,0,0,100,0.00,40.00,0,0,0,0.02
2014-7-14,65,51,40,-100,0,200,0,0,100,0.00,40.00,0,0,0,0.00
2014-7-15,68,59,42,-100,0,200,0,0,100,0.00,40.00,0,0,0,0.04